Location: Golden Pond Observatory
(36.7773°N, 88.0631°W)
Time: 15:30:13
(UTC-05:00)

Envisat - Visible Passes

Search period start: 23 March 2019 00:00
Search period end: 02 April 2019 00:00
Orbit: 764 x 766 km, 98.2° (Epoch: 22 March)

Date Brightness Start Highest point End Pass type
(mag) Time Alt. Az. Time Alt. Az. Time Alt. Az.
23 Mar 3.3 19:40:48 10° S 19:45:52 74° WSW 19:50:57 10° NNW visible
24 Mar 5.8 20:45:10 10° SW 20:48:26 17° W 20:51:43 10° NW visible
25 Mar 4.5 20:06:43 10° SSW 20:11:27 40° W 20:16:13 10° NNW visible
26 Mar 3.0 19:29:34 10° SSE 19:34:39 87° ENE 19:39:45 10° NNW visible
27 Mar 5.5 20:33:15 10° SW 20:37:08 22° W 20:41:02 10° NW visible
28 Mar 4.0 19:55:17 10° S 20:00:12 51° W 20:05:09 10° NNW visible
29 Mar 6.1 21:01:08 10° WSW 21:02:55 12° W 21:04:41 10° WNW visible
30 Mar 5.1 20:21:31 10° SSW 20:25:50 28° W 20:30:11 10° NW visible
31 Mar 3.5 19:43:56 10° S 19:48:58 67° WSW 19:54:01 10° NNW visible
01 Apr 5.9 20:48:37 10° SW 20:51:34 15° W 20:54:32 10° NW visible
